Flag for Russia Weather past 2 weeks in Rostov, Russia

Now
66 °F

Clear.


Feels Like: 66 °F
Forecast: 64 / 76 °F
Wind: 8 mph from Northeast

Location: Rostov-Na-Donu

Current Time: May 28, 2015 at 6:19:36 AM

Latest Report: May 28, 2015 at 5:30 AM


Visibility: 10 mi

Pressure: 29.62 "Hg

Humidity: 73%

Dew point: 57 °F

Location of RostovLocation

Historic Weather in Rostov — Graph

°F

Rostov temperature yesterday

Maximum temperature yesterday: 81 °F (at 1:00 PM)
Minimum temperature yesterday: 64 °F (at 5:00 AM)
Average temperature yesterday: 71 °F

Past Weeks' High & Low Weather Summary

 TemperatureHumidityPressure
High82 °F (May 24, 3:00 PM)94% (May 13, 5:30 AM)30.12 "Hg (May 13, 5:30 AM)
Low50 °F (May 14, 4:00 AM)24% (May 23, 4:00 PM)29.62 "Hg (May 28, 4:00 AM)
Average64 °F58%29.93 "Hg
* Reported May 13 5:00 AM — May 28 5:00 AM, Rostov, Weather by CustomWeather, © 2015

Note: Actual official high and low records may vary slightly from our data, if they occured in-between our weather recording intervals... More about our weather records

Advertising

Rostov weather history for previous 24 hours

 ConditionsComfort  
Time TempWeatherWind HumidityBarometerVisibility
5:00 AM
Thu, May 28
66 °FClear.8 mph73%29.62 "Hg10 mi
4:30 AM64 °FClear.8 mph78%29.62 "HgN/A
4:00 AM64 °FClear.6 mph78%29.62 "HgN/A
3:30 AM64 °FClear.8 mph78%29.65 "HgN/A
3:00 AM64 °FClear.6 mph78%29.65 "HgN/A
2:30 AM64 °FClear.3 mph78%29.65 "HgN/A
2:00 AM66 °FClear.1 mph73%29.65 "HgN/A
1:30 AM68 °FClear.6 mph69%29.65 "HgN/A
1:00 AM66 °FClear.1 mph83%29.68 "HgN/A
12:30 AM68 °FClear.1 mph83%29.68 "HgN/A
12:00 AM70 °FClear.1 mph78%29.68 "Hg5 mi
11:30 PM
Wed, May 27
70 °FClear.3 mph83%29.68 "HgN/A
11:00 PM70 °FClear.3 mph78%29.68 "Hg5 mi
10:30 PM70 °FClear.3 mph78%29.71 "HgN/A
10:00 PM72 °FClear.1 mph69%29.71 "HgN/A
9:30 PM73 °FClear.3 mph61%29.71 "HgN/A
9:00 PM73 °FClear.3 mph61%29.71 "HgN/A
8:30 PM75 °FClear.3 mph61%29.71 "HgN/A
8:00 PM77 °FSunny.No wind57%29.74 "Hg10 mi
7:00 PM79 °FPartly sunny.1 mph51%29.74 "HgN/A
6:00 PM81 °FPartly sunny.1 mph48%29.74 "HgN/A
5:00 PM81 °FBroken clouds.1 mph45%29.74 "HgN/A
4:00 PM81 °FBroken clouds.3 mph45%29.74 "HgN/A
3:00 PM79 °FBroken clouds.3 mph51%29.77 "HgN/A
2:00 PM79 °FBroken clouds.6 mph54%29.80 "HgN/A
1:00 PM81 °FBroken clouds.3 mph45%29.80 "HgN/A
12:00 PM77 °FBroken clouds.3 mph51%29.80 "HgN/A
11:00 AM75 °FPartly sunny.1 mph57%29.83 "HgN/A
10:00 AM70 °FPartly sunny.1 mph69%29.83 "HgN/A
9:00 AM66 °FBroken clouds.3 mph78%29.83 "HgN/A
8:30 AM64 °FSprinkles. Broken clouds.1 mph83%29.83 "HgN/A
8:00 AM64 °FSprinkles. Broken clouds.1 mph83%29.83 "HgN/A
7:30 AM66 °FBroken clouds.3 mph78%29.83 "HgN/A
6:30 AM64 °FSprinkles. Broken clouds.6 mph83%29.83 "HgN/A
6:00 AM64 °FThundershowers. Broken clouds.6 mph83%29.83 "HgN/A
Weather by CustomWeather, © 2015

See weather overviewHow to use our weather pages